Simultaneous Nadir Overpasses (SNOs) Predictions

Prediction of SNOs between NOAA-19 and NPP Satellite Orbit:

Table of predicted SNOs for the next 14.0 days since TLE Epoch: 8/18/2018
Index Date (NOAA-19) Time (NOAA-19) Lat,Lon (NOAA-19) SZA (NOAA-19 ) Date (NPP) Time (NPP) Lat,Lon (NPP) SZA (NPP ) Distance(km) Time Diff (sec)
1 08/19/2018 12:43:19 -80.47, 124.80 109.32 08/19/2018 12:44:27 -80.46, 124.76 109.35 1.70 68
2 08/19/2018 13:34:24 80.47, -68.04 70.71 08/19/2018 13:35:12 80.46, -67.93 70.66 2.35 48
3 08/19/2018 14:25:20 -80.47, 99.33 109.30 08/19/2018 14:25:57 -80.46, 99.37 109.33 1.72 37
4 08/19/2018 15:16:25 80.47, -93.51 70.73 08/19/2018 15:16:43 80.48, -93.65 70.74 2.93 18
5 08/19/2018 16:07:21 -80.48, 73.86 109.28 08/19/2018 16:07:27 -80.46, 73.98 109.30 2.68 6
6 08/19/2018 16:58:26 80.47,-118.99 70.75 08/19/2018 16:58:13 80.49,-119.04 70.77 1.82 13
7 08/19/2018 17:49:22 -80.48, 48.39 109.26 08/19/2018 17:48:58 -80.49, 48.26 109.22 2.65 24
8 08/19/2018 18:40:27 80.47,-144.46 70.77 08/19/2018 18:39:43 80.49,-144.43 70.80 1.59 44
9 08/19/2018 19:31:23 -80.48, 22.92 109.24 08/19/2018 19:30:28 -80.49, 22.87 109.20 1.41 55




NCC Satellite Simultaneous Nadir Overpasses (SNOs) Prediction Service
